{"data":{"norad_id":62491,"intl_designator":"2025-003E","name":"STARLINK-32717","alt_names":[],"object_type":"PAYLOAD","status":"ACTIVE","operator":null,"country":"US","launch_date":"2025-01-06","launch_site_code":"AFETR","launch_vehicle":null,"mission":null,"orbit_class":"UNKNOWN","rcs_meters":null,"size_class":null,"mass_kg":null,"dimensions":null,"purposes":["comms"],"wikipedia_slug":null,"has_3d_model":false,"image_url":null,"decayed_at":null,"tle_current":{"epoch":"2026-09-21T01:37:11.244864Z","epoch_age_seconds":125499,"freshness":"FRESH","line1":"1 62491U 25003E   26264.06749126  .00009179  00000+0  34258-3 0  9997","line2":"2 62491  43.0011 265.4483 0001354 268.8339  91.2357 15.27586806 96557","mean_motion":15.27586806,"eccentricity":0.0001354,"inclination_deg":43.0011,"raan_deg":265.4483,"arg_perigee_deg":268.8339,"mean_anomaly_deg":91.2357,"bstar":0.00034258,"rev_number":9655,"period_min":94.266328718212,"perigee_km":482.09971466486,"apogee_km":483.95771834089,"semimajor_km":6861.1657165029,"source":"CELESTRAK","updated_at":"2026-09-22T09:00:49.616839Z"}}}